Regional Weather Roundup
Issued by NWS Little Rock, AR

Home | Current Version | Previous Version | Text Only | Print | Product List | Glossary On
Versions: 1 2 3 4 5 6 7 8 9 10 11 12 13 14 15 16 17 18 19 20 21 22 23 24 25 26 27 28 29 30 31 32 33 34 35 36 37 38 39 40 41 42 43 44 45 46 47 48 49 50
000
ASUS44 KLZK 271305
RWRLZK

WEATHER ROUNDUP FOR ARKANSAS
NATIONAL WEATHER SERVICE LITTLE ROCK AR
800 AM CDT THU APR 27 2017

NOTE: "FAIR" INDICATES FEW OR NO CLOUDS BELOW 12,000 FEET WITH NO
SIGNIFICANT WEATHER AND/OR OBSTRUCTIONS TO VISIBILITY.

ARZ001-003-010-029-271400-
NORTHWEST ARKANSAS

CITY           SKY/WX    TMP DP  RH WIND       PRES   REMARKS
FAYETTEVILLE   FOG       40  40 100 S3        29.80R VSB 1/4
FORT SMITH     CLOUDY    51  45  79 CALM      29.79S
HARRISON       SUNNY     45  40  82 NW8       29.77R
BENTONVILLE    CLOUDY    39  37  93 CALM      29.78R VSB<1/4
ROGERS         SUNNY     43  42  97 CALM      29.79R
SILOAM SPGS    CLOUDY    39  37  93 CALM      29.79R VSB 1/2
HIGHFILL       FOG       40  40 100 CALM      29.78R VSB<1/4
SPRINGDALE     FOG       43  43 100 CALM      29.80R VSB 1/8
$$

ARZ004-005-016-271400-
NORTH CENTRAL ARKANSAS

CITY           SKY/WX    TMP DP  RH WIND       PRES   REMARKS
BATESVILLE     SUNNY    N/A N/A N/A W5        29.80R
FLIPPIN        SUNNY     45  37  76 W3        29.76R
MTN HOME       SUNNY     46  40  79 VRB6      29.76R
$$

ARZ040-041-271400-
WEST CENTRAL ARKANSAS

CITY           SKY/WX    TMP DP  RH WIND       PRES   REMARKS
MENA           MOSUNNY   48  46  93 CALM      29.79S
MOUNT IDA      PTSUNNY   46  45  96 CALM      29.77R
$$

ARZ009-017-025-026-028-271400-
NORTHEAST ARKANSAS

CITY           SKY/WX    TMP DP  RH WIND       PRES   REMARKS
JONESBORO      CLOUDY    52  43  71 W9        29.79R
NEWPORT        SUNNY     50  44  80 W8          N/A
WALNUT RIDGE   CLOUDY    50  41  71 SW8       29.78R
BLYTHEVILLE    CLOUDY    52  48  86 W6        29.78R
$$

ARZ022-023-033-042-044-271400-
CENTRAL ARKANSAS

CITY           SKY/WX    TMP DP  RH WIND       PRES   REMARKS
LITTLE ROCK    MOSUNNY   51  47  86 NW5       29.82R
N LITTLE ROCK    N/A     49  46  89 W3        29.82R
JACKSONVILLE   MOSUNNY   49  47  92 W5        29.80R
CONWAY           N/A     50  46  87 W5        29.81R
SEARCY         MOSUNNY   50  47  89 SW3       29.83R
HOT SPRINGS    SUNNY     49  47  93 CALM      29.81R
RUSSELLVILLE   CLOUDY    48  46  93 N3        29.81R
CLINTON        FOG       43  43 100 CALM      29.82R VSB 1/4
$$

ARZ036-271400-
EAST ARKANSAS

CITY           SKY/WX    TMP DP  RH WIND       PRES   REMARKS
WEST MEMPHIS   CLOUDY    52  47  83 VRB3      29.80R
$$

ARZ050-053-066-070-073-271400-
SOUTHWEST ARKANSAS

CITY           SKY/WX    TMP DP  RH WIND       PRES   REMARKS
ARKADELPHIA    FAIR      49  47  93 CALM      29.84R
CAMDEN         SUNNY     50  46  87 W3        29.85R
TEXARKANA      SUNNY     50  48  93 CALM      29.83R
EL DORADO      SUNNY     50  48  93 W6        29.84R
DE QUEEN       MOSUNNY   46  46 100 CALM      29.81R
$$

ARZ056-057-069-271400-
SOUTHEAST ARKANSAS

CITY           SKY/WX    TMP DP  RH WIND       PRES   REMARKS
PINE BLUFF     SUNNY     50  46  86 NW8       29.82R
STUTTGART      MOSUNNY   52  39  62 NW5       29.83R
MONTICELLO     SUNNY     52  48  86 CALM      29.83R

$$





USA.gov is the U.S. government's official web portal to all federal, state and local government web resources and services.